HST 1 20580U 90037B 25104.17171204 .00009507 00000-0 36811-3 0 9992 2 20580 28.4666 118.5846 0002299 110.7701 249.3139 15.24425514723164 ISS (ZARYA) 1 25544U 98067A 25103.90582541 .00013909 00000-0 25545-3 0 9991 2 25544 51.6361 265.4147 0005122 37.8814 322.2534 15.49519521505197 CXO 1 25867U 99040B 25105.96914894 .00000895 00000-0 00000+0 0 9994 2 25867 48.1030 132.8028 8515445 308.4124 0.0837 0.37808205 26867